TimeEST,TemperatureF,Dew PointF,Humidity,Sea Level PressureIn,VisibilityMPH,Wind Direction,Wind SpeedMPH,Gust SpeedMPH,PrecipitationIn,Events,Conditions,WindDirDegrees,DateUTC
12:17 AM,30.9,28.2,90,30.14,10.0,Calm,Calm,-,N/A,,Overcast,0,2013-02-26 05:17:00
12:36 AM,30.4,28.0,91,30.15,10.0,Calm,Calm,-,N/A,,Overcast,0,2013-02-26 05:36:00
12:56 AM,30.7,28.0,90,30.15,10.0,Calm,Calm,-,N/A,,Overcast,0,2013-02-26 05:56:00
1:16 AM,30.4,27.9,90,30.16,10.0,Calm,Calm,-,N/A,,Overcast,0,2013-02-26 06:16:00
1:36 AM,30.2,27.5,90,30.16,10.0,ESE,3.5,-,N/A,,Overcast,110,2013-02-26 06:36:00
1:56 AM,30.2,27.9,91,30.18,10.0,Calm,Calm,-,N/A,,Overcast,0,2013-02-26 06:56:00
2:16 AM,30.0,27.7,91,30.18,10.0,Calm,Calm,-,N/A,,Overcast,0,2013-02-26 07:16:00
2:36 AM,30.0,27.5,90,30.17,10.0,East,3.5,-,N/A,,Overcast,100,2013-02-26 07:36:00
2:56 AM,30.2,27.9,91,30.17,10.0,East,3.5,-,N/A,,Overcast,100,2013-02-26 07:56:00
3:16 AM,30.2,27.9,91,30.16,10.0,ESE,4.6,-,N/A,,Overcast,110,2013-02-26 08:16:00
3:36 AM,30.0,27.7,91,30.16,10.0,Calm,Calm,-,N/A,,Overcast,0,2013-02-26 08:36:00
3:56 AM,29.8,27.5,91,30.15,10.0,East,3.5,-,N/A,,Overcast,100,2013-02-26 08:56:00
4:16 AM,29.8,27.9,92,30.15,10.0,Calm,Calm,-,N/A,,Overcast,0,2013-02-26 09:16:00
4:36 AM,29.8,27.9,92,30.15,10.0,Calm,Calm,-,N/A,,Overcast,0,2013-02-26 09:36:00
4:57 AM,29.8,27.7,92,30.15,10.0,Calm,Calm,-,N/A,,Overcast,0,2013-02-26 09:57:00
5:16 AM,29.3,27.5,93,30.15,10.0,Calm,Calm,-,N/A,,Overcast,0,2013-02-26 10:16:00
5:36 AM,29.3,27.5,93,30.15,10.0,East,3.5,-,N/A,,Overcast,90,2013-02-26 10:36:00
5:56 AM,28.9,27.9,96,30.15,10.0,Calm,Calm,-,N/A,,Overcast,0,2013-02-26 10:56:00
6:16 AM,28.4,27.5,96,30.15,10.0,Calm,Calm,-,N/A,,Overcast,0,2013-02-26 11:16:00
6:36 AM,28.0,27.5,98,30.14,10.0,Calm,Calm,-,N/A,,Overcast,0,2013-02-26 11:36:00
6:56 AM,27.9,27.5,99,30.14,10.0,Calm,Calm,-,N/A,,Overcast,0,2013-02-26 11:56:00
7:16 AM,27.5,27.5,100,30.13,10.0,ENE,3.5,-,N/A,,Overcast,70,2013-02-26 12:16:00
7:36 AM,27.7,27.3,99,30.14,10.0,Calm,Calm,-,N/A,,Overcast,0,2013-02-26 12:36:00
7:56 AM,27.9,27.3,98,30.14,10.0,Calm,Calm,-,N/A,,Overcast,0,2013-02-26 12:56:00
8:16 AM,28.4,27.5,96,30.14,10.0,Calm,Calm,-,N/A,,Overcast,0,2013-02-26 13:16:00
8:36 AM,29.3,27.5,93,30.14,10.0,East,3.5,-,N/A,,Overcast,100,2013-02-26 13:36:00
8:56 AM,29.8,27.3,90,30.14,10.0,NE,3.5,-,N/A,,Overcast,50,2013-02-26 13:56:00
9:16 AM,29.5,26.6,89,30.14,10.0,ENE,3.5,-,N/A,,Overcast,60,2013-02-26 14:16:00
9:36 AM,30.0,26.4,86,30.14,10.0,East,4.6,-,N/A,,Overcast,80,2013-02-26 14:36:00
9:56 AM,30.2,26.1,85,30.15,10.0,Calm,Calm,-,N/A,,Overcast,0,2013-02-26 14:56:00
10:16 AM,30.6,25.9,83,30.14,10.0,ENE,6.9,-,N/A,,Overcast,70,2013-02-26 15:16:00
10:36 AM,30.9,25.5,80,30.14,10.0,East,6.9,-,N/A,,Overcast,80,2013-02-26 15:36:00
10:56 AM,31.5,25.2,78,30.14,10.0,East,5.8,-,N/A,,Overcast,80,2013-02-26 15:56:00
11:16 AM,31.8,24.8,75,30.13,10.0,ENE,5.8,-,N/A,,Overcast,70,2013-02-26 16:16:00
11:36 AM,32.0,24.6,74,30.12,10.0,East,4.6,-,N/A,,Overcast,80,2013-02-26 16:36:00
11:56 AM,31.8,24.3,74,30.11,10.0,East,12.7,18.4,N/A,,Overcast,90,2013-02-26 16:56:00
12:16 PM,31.5,23.9,74,30.10,10.0,East,9.2,-,N/A,,Overcast,100,2013-02-26 17:16:00
12:36 PM,31.1,24.3,76,30.09,10.0,East,8.1,-,N/A,,Overcast,90,2013-02-26 17:36:00
12:56 PM,31.6,23.7,73,30.07,10.0,ENE,10.4,17.3,N/A,,Overcast,70,2013-02-26 17:56:00
1:16 PM,31.6,23.5,72,30.05,10.0,ENE,10.4,23.0,N/A,,Overcast,60,2013-02-26 18:16:00
1:36 PM,31.8,23.0,70,30.04,10.0,NE,8.1,17.3,N/A,,Overcast,50,2013-02-26 18:36:00
1:56 PM,31.8,22.3,68,30.04,10.0,ENE,13.8,20.7,N/A,,Overcast,60,2013-02-26 18:56:00
2:17 PM,31.8,23.0,70,30.03,10.0,ENE,10.4,17.3,N/A,,Overcast,60,2013-02-26 19:17:00
2:36 PM,31.6,22.8,70,30.02,10.0,ENE,12.7,21.9,N/A,,Overcast,60,2013-02-26 19:36:00
2:56 PM,31.1,23.2,72,30.01,10.0,ENE,10.4,18.4,N/A,,Overcast,60,2013-02-26 19:56:00
3:16 PM,31.1,23.4,73,30.00,10.0,ENE,9.2,17.3,N/A,,Overcast,60,2013-02-26 20:16:00
3:36 PM,31.8,23.4,71,30.00,10.0,East,9.2,17.3,N/A,,Overcast,80,2013-02-26 20:36:00
3:56 PM,31.5,23.7,73,30.00,10.0,ENE,9.2,19.6,N/A,,Overcast,70,2013-02-26 20:56:00
4:16 PM,31.1,23.9,75,29.99,10.0,ENE,8.1,17.3,N/A,,Overcast,70,2013-02-26 21:16:00
4:36 PM,31.5,22.8,70,29.98,10.0,ENE,5.8,-,N/A,,Overcast,60,2013-02-26 21:36:00
4:56 PM,31.3,23.4,72,29.98,10.0,ENE,11.5,21.9,N/A,,Overcast,70,2013-02-26 21:56:00
5:16 PM,31.3,23.0,71,29.98,10.0,ENE,6.9,19.6,N/A,,Overcast,70,2013-02-26 22:16:00
5:36 PM,31.1,23.5,74,29.97,10.0,ENE,9.2,18.4,N/A,,Overcast,60,2013-02-26 22:36:00
5:57 PM,30.7,23.2,74,29.96,10.0,ENE,10.4,17.3,N/A,,Scattered Clouds,60,2013-02-26 22:57:00
6:16 PM,30.2,23.2,75,29.96,10.0,NE,10.4,17.3,N/A,,Clear,50,2013-02-26 23:16:00
6:36 PM,29.8,23.9,79,29.97,10.0,NE,8.1,-,N/A,,Clear,50,2013-02-26 23:36:00
6:56 PM,29.7,23.5,78,29.96,10.0,NE,9.2,20.7,N/A,,Clear,40,2013-02-26 23:56:00
7:16 PM,29.8,23.0,76,29.97,10.0,ENE,12.7,17.3,N/A,,Clear,60,2013-02-27 00:16:00
7:36 PM,29.3,23.2,78,29.97,10.0,NE,8.1,-,N/A,,Clear,40,2013-02-27 00:36:00
7:56 PM,29.3,23.5,79,29.96,10.0,NE,9.2,-,N/A,,Clear,40,2013-02-27 00:56:00
8:16 PM,28.9,23.5,80,29.96,10.0,NNE,9.2,16.1,N/A,,Clear,30,2013-02-27 01:16:00
8:36 PM,28.9,23.4,80,29.95,10.0,NE,12.7,24.2,N/A,,Clear,40,2013-02-27 01:36:00
8:56 PM,28.9,23.5,80,29.93,10.0,NE,9.2,19.6,N/A,,Clear,40,2013-02-27 01:56:00
9:16 PM,28.6,23.4,81,29.92,10.0,NNE,11.5,17.3,N/A,,Clear,30,2013-02-27 02:16:00
9:37 PM,28.9,23.5,80,29.91,10.0,NE,10.4,18.4,N/A,,Clear,40,2013-02-27 02:37:00
9:56 PM,28.9,23.5,80,29.90,10.0,NE,10.4,16.1,N/A,,Clear,50,2013-02-27 02:56:00
10:16 PM,28.9,23.7,81,29.89,10.0,NE,8.1,-,N/A,,Clear,40,2013-02-27 03:16:00
10:36 PM,28.9,23.9,81,29.88,10.0,NE,9.2,20.7,N/A,,Clear,40,2013-02-27 03:36:00
10:56 PM,28.9,23.9,81,29.87,10.0,NE,9.2,-,N/A,,Clear,50,2013-02-27 03:56:00
11:17 PM,29.1,24.3,82,29.86,10.0,ENE,11.5,17.3,N/A,,Clear,60,2013-02-27 04:17:00
11:56 PM,29.3,24.4,82,29.84,10.0,NE,11.5,19.6,N/A,,Clear,50,2013-02-27 04:56:00